Latest Coastal Weather Observations for Gannett Cay

IDQ60701

Issued at 7:35 pm EST Friday 30 January 2015 (issued every 10 minutes, with the page automatically refreshed every 10 minutes)

About coastal observations | Map of coastal stations | Coastal observations for QLD | Marine services | Other Formats
Station Details ID: 200831 Name: GANNET CAY Lat: -21.98 Lon: 152.47 Height: 2.3 m
Data from the previous 72 hours. | See also: Recent months for locations in Queensland
Date/Time
EST
Temp

°C
Wind Pressure Rain
since 9am
mm
Weather Cloud Vis
km
Sea
Height
m
Swell
Dir
 
Speed
knots
Gust
knots
hPa Trend Height
m
Period
s
Dir
30/07:30pm 27.4 SE 19 21 1005.9 - - - - - - - - -
30/07:29pm 27.5 SE 19 19 1006.1 - - - - - - - - -
30/07:00pm 27.4 SE 19 22 1005.8 - - - - - - - - -
30/06:30pm 27.5 SE 20 23 1005.6 - - - - - - - - -
30/06:29pm 27.5 SE 19 20 1005.8 - - - - - - - - -
30/06:00pm 27.4 SE 19 22 1005.4 - - - - - - - - -
30/05:30pm 27.4 SE 21 23 1005.3 - - - - - - - - -
30/05:29pm 27.6 SE 20 22 1005.4 - - - - - - - - -
30/05:00pm 27.3 SE 20 23 1005.1 - - - - - - - - -
30/04:30pm 27.6 SSE 20 23 1005.0 - - - - - - - - -
30/04:29pm 27.6 SSE 20 21 1005.2 - - - - - - - - -
30/04:00pm 27.6 SSE 19 23 1004.9 - - - - - - - - -
30/03:30pm 27.7 SE 19 22 1004.8 - - - - - - - - -
30/03:29pm 27.8 SE 19 21 1005.0 - - - - - - - - -
30/03:00pm 27.7 SSE 20 23 1004.8 - - - - - - - - -
30/02:30pm 27.8 SSE 21 23 1004.9 - - - - - - - - -
30/02:29pm 27.8 SSE 21 22 1005.1 - - - - - - - - -
30/02:00pm 27.7 SSE 20 23 1005.0 - - - - - - - - -
30/01:30pm 27.9 SSE 20 22 1005.2 - - - - - - - - -
30/01:29pm 28.1 SSE 20 21 1005.4 - - - - - - - - -
30/01:00pm 28.0 SE 20 23 1005.3 - - - - - - - - -
30/12:30pm 28.1 SE 19 22 1005.6 - - - - - - - - -
30/12:29pm 27.9 SE 19 21 1005.8 - - - - - - - - -
30/12:00pm 27.9 SE 19 23 1005.8 - - - - - - - - -
30/11:30am 27.9 SE 18 21 1006.0 - - - - - - - - -
30/11:29am 28.0 SE 18 20 1006.3 - - - - - - - - -
30/11:00am 27.7 SE 19 22 1006.2 - - - - - - - - -
30/10:30am 25.9 SSE 11 15 1006.7 - - - - - - - - -
30/10:29am 25.9 SSE 11 12 1006.9 - - - - - - - - -
30/10:00am 26.9 ESE 19 21 1006.6 - - - - - - - - -
30/09:30am 26.1 ESE 19 22 1006.4 - - - - - - - - -
30/09:29am 25.9 ESE 19 - 1006.6 - - - - - - - - -
30/09:00am 25.0 E 18 22 1006.4 - - - - - - - - -
30/08:55am 25.3 ESE 19 29 1006.3 - - - - - - - - -
30/08:30am 26.3 SE 17 24 1006.4 - - - - - - - - -
30/08:29am 26.7 SE 16 - 1006.6 - - - - - - - - -
30/08:00am 26.6 SE 22 26 1006.2 - - - - - - - - -
30/07:30am 27.4 SE 20 22 1005.8 - - - - - - - - -
30/07:29am 27.4 SE 19 - 1006.0 - - - - - - - - -
30/07:00am 27.4 SE 20 23 1005.5 - - - - - - - - -
30/06:30am 27.2 SE 20 23 1005.2 - - - - - - - - -
30/06:29am 27.4 SE 20 22 1005.4 - - - - - - - - -
30/06:00am 25.7 SE 21 29 1004.7 - - - - - - - - -
30/05:54am 26.6 SE 16 29 1004.6 - - - - - - - - -
30/05:30am 25.8 ESE 13 15 1004.4 - - - - - - - - -
30/05:29am 25.8 ESE 13 - 1004.6 - - - - - - - - -
30/05:00am 26.0 E 13 15 1003.9 - - - - - - - - -
30/04:30am 26.0 ESE 13 15 1004.1 - - - - - - - - -
30/04:29am 26.2 ESE 13 - 1004.3 - - - - - - - - -
30/04:00am 25.8 E 16 18 1004.2 - - - - - - - - -
30/03:30am 26.2 E 13 15 1004.5 - - - - - - - - -
30/03:29am 26.4 E 13 - 1004.7 - - - - - - - - -
30/03:00am 26.4 E 13 16 1004.7 - - - - - - - - -
30/02:30am 26.3 ESE 17 19 1004.6 - - - - - - - - -
30/02:29am 26.3 ESE 17 - 1004.8 - - - - - - - - -
30/02:00am 25.9 E 15 18 1004.9 - - - - - - - - -
30/01:30am 25.4 E 16 19 1005.3 - - - - - - - - -
30/01:29am 25.4 E 16 - 1005.5 - - - - - - - - -
30/01:00am 25.0 E 16 18 1005.6 - - - - - - - - -
30/12:30am 25.4 E 16 19 1005.8 - - - - - - - - -
30/12:29am 25.4 E 16 - 1006.0 - - - - - - - - -
30/12:00am 25.0 E 16 18 1006.2 - - - - - - - - -
 
Date/Time
EST
Temp

°C
Wind Pressure Rain
since 9am
mm
Weather Cloud Vis
km
Sea
Height
m
Swell
Dir
 
Speed
knots
Gust
knots
hPa Trend Height
m
Period
s
Dir
29/11:30pm 24.6 ESE 16 18 1006.5 - - - - - - - - -
29/11:29pm 24.8 ESE 16 - 1006.7 - - - - - - - - -
29/11:00pm 24.7 ESE 17 19 1006.8 - - - - - - - - -
29/10:30pm 23.8 SE 14 17 1007.2 - - - - - - - - -
29/10:29pm 23.8 SE 14 - 1007.4 - - - - - - - - -
29/10:00pm 24.1 SE 17 29 1007.1 - - - - - - - - -
29/09:59pm 24.7 SE 16 29 1007.3 - - - - - - - - -
29/09:30pm 24.6 E 11 13 1007.2 - - - - - - - - -
29/09:29pm 24.6 E 11 - 1007.4 - - - - - - - - -
29/09:00pm 24.4 ESE 7 9 1006.8 - - - - - - - - -
29/08:30pm 24.4 ESE 9 10 1006.7 - - - - - - - - -
29/08:29pm 24.4 ESE 9 - 1006.8 - - - - - - - - -
29/08:00pm 23.8 E 10 13 1006.3 - - - - - - - - -
29/07:30pm 23.3 E 12 15 1006.3 - - - - - - - - -
29/07:29pm 23.0 E 12 - 1006.5 - - - - - - - - -
29/07:00pm 23.8 E 10 15 1006.0 - - - - - - - - -
29/06:30pm 23.9 E 11 14 1005.4 - - - - - - - - -
29/06:29pm 23.9 E 11 - 1005.6 - - - - - - - - -
29/06:00pm 23.9 E 16 18 1004.9 - - - - - - - - -
29/05:30pm 23.6 ESE 13 16 1004.8 - - - - - - - - -
29/05:29pm 23.5 ESE 13 - 1005.0 - - - - - - - - -
29/05:00pm 23.8 SE 10 11 1004.3 - - - - - - - - -
29/04:30pm 24.9 ESE 10 13 1003.8 - - - - - - - - -
29/04:29pm 25.2 ESE 10 - 1004.0 - - - - - - - - -
29/04:00pm 26.2 ESE 14 16 1003.3 - - - - - - - - -
29/03:30pm 25.9 E 16 18 1002.8 - - - - - - - - -
29/03:29pm 25.9 E 16 - 1003.0 - - - - - - - - -
29/03:00pm 26.1 ESE 18 20 1003.1 - - - - - - - - -
29/02:30pm 26.3 ESE 18 20 1003.3 - - - - - - - - -
29/02:29pm 26.3 ESE 18 - 1003.5 - - - - - - - - -
29/02:00pm 26.6 ESE 16 18 1003.2 - - - - - - - - -
29/01:30pm 26.4 ESE 20 23 1003.4 - - - - - - - - -
29/01:29pm 26.3 ESE 20 - 1003.6 - - - - - - - - -
29/01:00pm 27.4 SE 19 23 1003.7 - - - - - - - - -
29/12:30pm 27.0 SE 19 22 1003.8 - - - - - - - - -
29/12:29pm 26.9 SE 19 - 1004.0 - - - - - - - - -
29/12:00pm 27.2 SE 19 22 1004.0 - - - - - - - - -
29/11:30am 27.6 SE 17 19 1004.2 - - - - - - - - -
29/11:29am 27.8 SE 17 - 1004.4 - - - - - - - - -
29/11:00am 28.2 SE 16 18 1004.2 - - - - - - - - -
29/10:30am 28.0 SE 17 19 1004.2 - - - - - - - - -
29/10:29am 27.9 SE 17 - 1004.4 - - - - - - - - -
29/10:00am 27.7 SE 17 18 1004.3 - - - - - - - - -
29/09:30am 27.6 SE 18 20 1004.1 - - - - - - - - -
29/09:29am 27.7 SE 17 - 1004.3 - - - - - - - - -
29/09:00am 27.7 SE 14 16 1004.2 - - - - - - - - -
29/08:30am 28.0 ESE 14 16 1004.2 - - - - - - - - -
29/08:29am 27.9 ESE 14 - 1004.4 - - - - - - - - -
29/08:00am 27.8 ESE 14 17 1004.0 - - - - - - - - -
29/07:30am 27.7 ESE 16 18 1003.5 - - - - - - - - -
29/07:29am 27.8 ESE 16 - 1003.7 - - - - - - - - -
29/07:00am 27.7 ESE 17 19 1003.5 - - - - - - - - -
29/06:30am 27.6 ESE 17 19 1003.5 - - - - - - - - -
29/06:29am 27.6 ESE 17 - 1003.7 - - - - - - - - -
29/06:00am 27.5 ESE 16 18 1002.9 - - - - - - - - -
29/05:30am 27.4 ESE 16 19 1002.7 - - - - - - - - -
29/05:29am 27.5 ESE 16 - 1002.9 - - - - - - - - -
29/05:00am 27.5 ESE 16 17 1002.5 - - - - - - - - -
29/04:30am 27.3 ESE 15 17 1002.3 - - - - - - - - -
29/04:29am 27.3 ESE 15 - 1002.5 - - - - - - - - -
29/04:00am 26.9 ESE 16 19 1002.0 - - - - - - - - -
29/03:30am 26.9 ESE 14 16 1002.0 - - - - - - - - -
29/03:29am 27.1 ESE 14 - 1002.1 - - - - - - - - -
29/03:00am 26.9 E 15 17 1001.7 - - - - - - - - -
29/02:30am 26.5 E 15 17 1001.7 - - - - - - - - -
29/02:29am 26.5 E 15 - 1001.9 - - - - - - - - -
29/02:00am 26.9 E 14 17 1002.1 - - - - - - - - -
29/01:30am 27.1 E 14 17 1002.6 - - - - - - - - -
29/01:29am 27.0 E 15 - 1002.8 - - - - - - - - -
29/01:00am 26.5 E 16 19 1002.7 - - - - - - - - -
29/12:30am 26.4 E 17 22 1002.9 - - - - - - - - -
29/12:29am 26.5 E 16 - 1003.0 - - - - - - - - -
29/12:00am 26.0 ENE 16 19 1003.3 - - - - - - - - -
 
Date/Time
EST
Temp

°C
Wind Pressure Rain
since 9am
mm
Weather Cloud Vis
km
Sea
Height
m
Swell
Dir
 
Speed
knots
Gust
knots
hPa Trend Height
m
Period
s
Dir
28/11:30pm 26.0 E 17 21 1003.6 - - - - - - - - -
28/11:29pm 26.0 E 18 - 1003.8 - - - - - - - - -
28/11:00pm 25.5 E 16 19 1003.8 - - - - - - - - -
28/10:30pm 26.3 ESE 18 21 1003.9 - - - - - - - - -
28/10:29pm 26.2 ESE 18 - 1004.0 - - - - - - - - -
28/10:00pm 26.2 ESE 18 21 1003.9 - - - - - - - - -
28/09:30pm 26.5 ESE 18 20 1003.9 - - - - - - - - -
28/09:29pm 26.5 ESE 18 - 1004.1 - - - - - - - - -
28/09:00pm 27.0 ESE 19 22 1003.6 - - - - - - - - -
28/08:30pm 26.7 ESE 21 23 1003.5 - - - - - - - - -
28/08:29pm 26.9 ESE 20 - 1003.7 - - - - - - - - -
28/08:00pm 25.8 SE 19 23 1003.2 - - - - - - - - -
28/07:30pm 25.5 ESE 13 19 1003.0 - - - - - - - - -
28/07:29pm 25.4 ESE 13 - 1003.2 - - - - - - - - -
28/07:00pm 24.6 SSE 14 20 1002.7 - - - - - - - - -
28/06:30pm 25.7 SE 13 16 1002.5 - - - - - - - - -
28/06:29pm 25.6 SE 13 - 1002.7 - - - - - - - - -
28/06:00pm 24.7 SE 20 24 1001.7 - - - - - - - - -
28/05:30pm 26.3 ESE 18 20 1001.4 - - - - - - - - -
28/05:29pm 26.3 ESE 18 - 1001.6 - - - - - - - - -
28/05:00pm 26.2 SE 16 18 1001.0 - - - - - - - - -
28/04:30pm 26.1 SE 18 19 1000.6 - - - - - - - - -
28/04:29pm 26.3 SE 18 - 1000.8 - - - - - - - - -
28/04:00pm 26.4 ESE 19 21 1000.4 - - - - - - - - -
28/03:30pm 26.3 ESE 18 20 1000.5 - - - - - - - - -
28/03:29pm 26.1 ESE 18 - 1000.7 - - - - - - - - -
28/03:00pm 26.5 ESE 17 19 1000.6 - - - - - - - - -
28/02:30pm 26.8 ESE 15 17 1000.9 - - - - - - - - -
28/02:29pm 26.9 ESE 15 - 1001.1 - - - - - - - - -
28/02:00pm 27.0 ESE 15 17 1000.5 - - - - - - - - -
28/01:30pm 26.1 ESE 14 15 1000.8 - - - - - - - - -
28/01:29pm 25.9 ESE 14 - 1001.0 - - - - - - - - -
28/01:00pm 26.9 ESE 13 14 1001.1 - - - - - - - - -
28/12:30pm 26.1 ESE 15 16 1001.4 - - - - - - - - -
28/12:29pm 26.1 ESE 15 - 1001.7 - - - - - - - - -
28/12:00pm 26.3 ESE 17 19 1001.8 - - - - - - - - -
28/11:30am 26.5 ESE 17 21 1002.0 - - - - - - - - -
28/11:29am 26.6 ESE 17 - 1002.3 - - - - - - - - -
28/11:00am 27.3 ESE 11 14 1002.0 - - - - - - - - -
28/10:30am 27.5 ENE 14 16 1001.8 - - - - - - - - -
28/10:29am 27.6 ENE 14 - 1002.0 - - - - - - - - -
28/10:00am 27.5 ESE 13 16 1002.0 - - - - - - - - -
28/09:30am 28.2 E 15 18 1001.9 - - - - - - - - -
28/09:29am 28.2 E 15 - 1002.2 - - - - - - - - -
28/09:00am 27.9 E 14 15 1002.1 - - - - - - - - -
28/08:30am 26.7 ENE 16 19 1002.0 - - - - - - - - -
28/08:29am 26.7 ENE 16 - 1002.2 - - - - - - - - -
28/08:00am 26.2 ENE 18 19 1001.9 - - - - - - - - -
28/07:30am 26.4 ENE 18 21 1001.8 - - - - - - - - -
28/07:29am 26.5 ENE 18 - 1002.0 - - - - - - - - -
28/07:00am 26.6 E 18 19 1001.7 - - - - - - - - -
28/06:30am 27.2 E 16 19 1001.5 - - - - - - - - -
28/06:29am 27.3 E 16 - 1001.7 - - - - - - - - -
28/06:00am 26.9 E 13 15 1001.3 - - - - - - - - -
28/05:30am 26.7 ENE 14 17 1000.8 - - - - - - - - -
28/05:29am 26.6 ENE 15 - 1001.0 - - - - - - - - -
28/05:00am 27.3 ESE 18 19 1000.3 - - - - - - - - -
28/04:30am 27.4 ESE 17 19 1000.2 - - - - - - - - -
28/04:29am 27.5 ESE 17 - 1000.4 - - - - - - - - -
28/04:00am 27.4 ESE 16 19 1000.2 - - - - - - - - -
28/03:30am 27.4 ESE 16 18 1000.3 - - - - - - - - -
28/03:29am 27.3 ESE 16 - 1000.5 - - - - - - - - -
28/03:00am 26.9 ESE 16 19 1000.5 - - - - - - - - -
28/02:30am 26.5 SE 17 19 1000.7 - - - - - - - - -
28/02:29am 26.2 SE 17 - 1000.9 - - - - - - - - -
28/02:00am 26.4 ESE 17 19 1000.9 - - - - - - - - -
28/01:30am 27.3 E 15 18 1001.3 - - - - - - - - -
28/01:29am 27.3 E 15 - 1001.6 - - - - - - - - -
28/01:00am 27.5 E 16 17 1001.6 - - - - - - - - -
28/12:30am 27.0 ESE 11 15 1002.1 - - - - - - - - -
28/12:29am 27.0 ESE 11 - 1002.3 - - - - - - - - -
28/12:00am 26.3 ESE 15 18 1002.3 - - - - - - - - -
 
Date/Time
EST
Temp

°C
Wind Pressure Rain
since 9am
mm
Weather Cloud Vis
km
Sea
Height
m
Swell
Dir
 
Speed
knots
Gust
knots
hPa Trend Height
m
Period
s
Dir
27/11:30pm 25.2 ESE 16 19 1002.6 - - - - - - - - -
27/11:29pm 25.3 ESE 16 - 1002.8 - - - - - - - - -
27/11:00pm 25.1 ESE 18 20 1003.1 - - - - - - - - -
27/10:30pm 25.9 ESE 20 24 1003.3 - - - - - - - - -
27/10:29pm 26.0 ESE 19 - 1003.5 - - - - - - - - -
27/10:00pm 27.2 ESE 17 20 1003.4 - - - - - - - - -
27/09:30pm 27.3 ESE 12 14 1003.4 - - - - - - - - -
27/09:29pm 27.3 ESE 12 - 1003.6 - - - - - - - - -
27/09:00pm 26.7 ESE 18 22 1003.4 - - - - - - - - -
27/08:30pm 27.6 ESE 14 17 1002.9 - - - - - - - - -
27/08:29pm 27.5 ESE 14 - 1003.2 - - - - - - - - -
27/08:00pm 27.4 ESE 15 18 1002.7 - - - - - - - - -

Other Formats:

Comma delimited format used in spreadsheet applications
http://www.bom.gov.au/fwo/IDQ60701/IDQ60701.94379.axf

JavaScript Object Notation format (JSON) in row-major order
http://www.bom.gov.au/fwo/IDQ60701/IDQ60701.94379.json